Погода в Эредии

Коста-Рика     10°00′19″N   84°07′44″W
темп.,
°C
ветер,
м/с
пор.,
м/с
влажн.,
%
обл.,
%
осадки,
мм/ч
давл.,
гПа
погр.,
м
22 апреля, чт
чт2200:00+18св2290100 0.0 101449
03:00+17св239250 0.0 101373
06:00+18св2592100 0.1 1013189
09:00+21св358027 0.1 1014678
12:00+26св225554 0.1 10121519
15:00+22св257092 0.5 1010389
18:00+19св24845 0.6 1012128
21:00+17св248921 0.0 1015153
23 апреля, пт
пт2300:00+16св239058 0.0 101575
03:00+16св2490100 0.0 101388
06:00+16св248964 0.0 101598
09:00+24св236166 0.0 10141126
12:00+25з115793 0.2 10131349
15:00+23зсз127754 1.9 1011613
18:00+20с119299 4.8 101315
21:00+19св129497 0.3 101564
24 апреля, сб
сб2400:00+18св119563 0.4 101437
03:00+17св21946 0.0 101328
06:00+17св23928 0.0 101470
09:00+25ссв01577 0.0 1014880
12:00+28юз325162 0.3 10121786
15:00+23з127699 1.5 1011668
18:00+20ссз119071 2.3 101219
21:00+19св119277 0.1 101430
25 апреля, вс
вс2500:00+18св21949 0.1 101330
03:00+17св22945 0.0 101342
06:00+17св239110 0.0 101460
09:00+26св125122 0.0 10141023
12:00+30с123810 0.0 10112211
15:00+26ююз115592 0.1 10091088
18:00+21св118529 0.6 101219
21:00+19св238623 0.1 1014104
26 апреля, пн
пн2600:00+17св23915 0.1 101365
03:00+16св249374 0.0 101285
06:00+17св248984 0.0 1013106
09:00+25св12578 0.0 10131103
12:00+27сз115494 0.1 10111464
15:00+23вюв017997 1.0 1010450
18:00+20св229157 1.5 101285
21:00+19св239391 0.1 1014132